Location: Newark
(46.9000°N, 28.3500°E)
Time: 17:42:39
(UTC+00:00)

Explorer 7 - Pass Details

Date: 29 August 2019
Orbit: 485 x 680 km, 50.3° (Epoch: 14 October)

Event Time Altitude Azimuth Distance (km) Brightness Sun altitude
Rises 10:05:19 0° 292° (WNW) 2,968 10.4 52.5°
Reaches altitude 10° 10:07:43 10° 291° (WNW) 2,029 9.7 52.5°
Maximum altitude 10:12:22 78° 206° (SSW) 628 8.5 52.5°
Drops below altitude 10° 10:16:44 10° 120° (ESE) 1,900 9.9 52.4°
Sets 10:18:56 0° 119° (ESE) 2,763 10.6 52.4°
